Location: Cypress Hills Dark-Sky Preserve - CHICO
(49.6176°N, 110.2634°W)
Time: 18:03:06
(UTC-06:00)

Amateur Radio Satellites - All Passes

Search period start: 28 June 2016 17:33
Search period end: 29 June 2016 17:33
Location: Cypress Hills Dark-Sky Preserve - CHICO, 49.6176°N, 110.2634°W

Satellite Date Start Highest point End Downlink Frequencies (MHz)
Time Altitude Azimuth
HORYU 2 28 Jun 17:33:26 17:37:48 60° 258° (WSW) 17:42:15 437.375
STARS 28 Jun 17:37:56 17:42:18 59° 102° (ESE) 17:46:39 437.465
DOVE 4 28 Jun 17:53:53 17:54:45 11° 56° (NE) 17:55:36 437.250
BRITE-PL 28 Jun 17:54:04 17:58:46 45° 70° (ENE) 18:03:08 437.365/2234.400
BEESAT 28 Jun 17:56:31 17:58:27 12° 308° (NW) 18:00:23 436.000
ITUPSAT 1 28 Jun 17:57:33 17:59:32 12° 308° (NW) 18:01:30 437.325
CUTE-I 28 Jun 17:59:22 18:04:25 44° 66° (ENE) 18:09:30 437.470
HO-68 28 Jun 18:02:20 18:06:29 17° 43° (NE) 18:10:39 435.675
CUSAT 1 28 Jun 18:16:40 18:20:06 25° 63° (ENE) 18:22:53 437.405
Cosmos 2504 28 Jun 18:17:17 18:20:49 13° 319° (NW) 18:24:27 435.465 / 435.565
CUBESAT XI-V 28 Jun 18:23:40 18:28:04 41° 97° (E) 18:32:26 437.345
NOAA 15 28 Jun 18:27:11 18:32:29 87° 254° (WSW) 18:37:49 137.62
GOMX 1 28 Jun 18:27:48 18:32:04 42° 70° (ENE) 18:36:08 467.674
MOZHAYETS 4 28 Jun 18:33:30 18:37:26 28° 296° (WNW) 18:41:21
AO-7 28 Jun 18:34:17 18:37:27 12° 279° (W) 18:40:38 29.400- 29.500
RS-15 28 Jun 18:36:10 18:47:39 44° 19° (NNE) 18:59:19 29.354- 29.394
DANDE 28 Jun 18:39:13 18:43:45 25° 59° (ENE) 18:47:21 436.750
KKS-1 28 Jun 18:43:05 18:46:26 21° 299° (WNW) 18:49:47 437.445
LilacSat-2 28 Jun 18:43:41 18:47:28 88° 266° (W) 18:51:18 437.200
CINEMA 3 28 Jun 18:48:23 18:49:49 12° 56° (NE) 18:51:14 145.822/145.860
AIST 1 28 Jun 18:53:19 18:57:06 29° 289° (WNW) 19:00:54
SO-50 28 Jun 18:56:23 19:00:30 26° 329° (NNW) 19:04:35 436.795
Cosmos 2499 28 Jun 18:59:20 19:07:08 44° 86° (E) 19:15:20 435.465 / 435.565
NOAA 18 28 Jun 18:59:46 19:05:10 59° 258° (WSW) 19:10:37 137.9125
Cubesat XI-IV 28 Jun 19:04:43 19:10:00 60° 258° (WSW) 19:15:21 437.490
GONETS M04 28 Jun 19:07:06 19:15:41 67° 93° (E) 19:24:17
STARS 28 Jun 19:15:09 19:18:17 19° 300° (WNW) 19:21:24 437.465
DOVE 4 28 Jun 19:27:30 19:31:47 77° 73° (ENE) 19:35:57 437.250
BRITE-PL 28 Jun 19:33:19 19:37:25 26° 266° (W) 19:41:18 437.365/2234.400
CANX-2 28 Jun 19:37:46 19:41:36 32° 67° (ENE) 19:45:28 2200.000
CUTE-I 28 Jun 19:39:50 19:44:36 32° 265° (W) 19:49:24 437.470
COMPASS 1 28 Jun 19:40:15 19:43:05 18° 61° (ENE) 19:45:57 437.405
HO-68 28 Jun 19:45:51 19:52:49 59° 65° (ENE) 19:59:51 435.675
STRAND 1 28 Jun 19:46:49 19:50:57 23° 92° (E) 19:55:01 437.568
CUTE 1.7 + AOD 2 28 Jun 19:57:28 20:01:32 44° 69° (ENE) 20:05:38 437.475
CUSAT 1 28 Jun 19:58:58 20:02:03 22° 273° (W) 20:04:38 437.405
SEEDS 28 Jun 20:01:23 20:05:17 36° 68° (ENE) 20:09:12 437.485
CUBESAT XI-V 28 Jun 20:01:23 20:05:18 28° 296° (WNW) 20:09:11 437.345
GOMX 1 28 Jun 20:06:43 20:10:21 23° 266° (W) 20:13:51 467.674
NOAA 15 28 Jun 20:10:19 20:13:03 14° 273° (W) 20:15:47 137.62
CUBEBUG 2 28 Jun 20:18:47 20:22:22 28° 65° (ENE) 20:26:02 437.445
DANDE 28 Jun 20:21:54 20:26:58 43° 269° (W) 20:30:48 436.750
CINEMA 3 28 Jun 20:22:07 20:26:16 85° 75° (ENE) 20:30:29 145.822/145.860
AUBIESAT-1 28 Jun 20:23:21 20:26:08 25° 60° (ENE) 20:28:59 437.475
AAUSAT CUBESAT 2 28 Jun 20:39:51 20:43:55 51° 71° (ENE) 20:48:01 437.432
SO-50 28 Jun 20:40:04 20:42:35 14° 353° (N) 20:45:05 436.795
ZACube-1 28 Jun 20:44:30 20:47:59 25° 63° (ENE) 20:51:32 437.345
RS-15 28 Jun 20:49:44 21:02:07 83° 49° (NE) 21:14:30 29.354- 29.394
Cosmos 2499 28 Jun 20:51:57 21:00:10 52° 289° (WNW) 21:08:49 435.465 / 435.565
DELFI C3 28 Jun 20:51:58 20:54:24 16° 60° (ENE) 20:56:50 145.870
Oscar 11 28 Jun 20:53:37 20:57:29 33° 66° (ENE) 21:01:24 145.826/435.025
FUNcube-1 28 Jun 21:01:32 21:05:21 33° 67° (ENE) 21:09:16 145.935
M-CUBED/EXP-1 PRIME 28 Jun 21:02:20 21:05:35 90° 71° (ENE) 21:08:55 437.505
UWE-3 28 Jun 21:05:09 21:09:16 54° 71° (ENE) 21:13:30 435.000/436.395/437.385
GONETS M04 28 Jun 21:05:28 21:13:11 34° 297° (WNW) 21:20:58
AO-85 28 Jun 21:07:42 21:10:40 15° 109° (ESE) 21:13:36 145.980
DOVE 4 28 Jun 21:08:20 21:10:02 12° 272° (W) 21:11:44 437.250
CANX-2 28 Jun 21:13:40 21:17:28 30° 265° (W) 21:21:18 2200.000
COMPASS 1 28 Jun 21:14:05 21:18:15 60° 259° (W) 21:22:27 437.405
PRISM 28 Jun 21:22:22 21:25:54 27° 95° (E) 21:29:25 437.425
STRAND 1 28 Jun 21:25:24 21:30:28 56° 291° (WNW) 21:35:30 437.568
CUTE 1.7 + AOD 2 28 Jun 21:34:12 21:37:35 22° 268° (W) 21:40:59 437.475
HO-68 28 Jun 21:34:30 21:40:54 34° 265° (W) 21:47:21 435.675
SEEDS 28 Jun 21:37:26 21:41:04 27° 266° (W) 21:44:43 437.485
CUBEBUG 2 28 Jun 21:55:06 21:58:56 34° 264° (W) 22:02:52 437.445
HUMSAT D 28 Jun 21:55:21 21:59:05 32° 67° (ENE) 22:02:54 437.325/437.525
AUBIESAT-1 28 Jun 21:57:55 22:00:39 24° 259° (W) 22:03:27 437.475
CINEMA 3 28 Jun 22:03:06 22:04:05 11° 274° (W) 22:05:04 145.822/145.860
AAUSAT CUBESAT 2 28 Jun 22:16:43 22:19:42 19° 269° (W) 22:22:41 437.432
UNISAT 6 28 Jun 22:17:27 22:18:13 10° 85° (E) 22:18:59 437.425
ZACube-1 28 Jun 22:20:06 22:24:05 40° 263° (W) 22:28:11 437.345
SO-50 28 Jun 22:21:48 22:24:57 17° 18° (NNE) 22:28:02 436.795
DELFI C3 28 Jun 22:24:48 22:28:48 65° 259° (W) 22:32:50 145.870
Oscar 11 28 Jun 22:29:46 22:33:38 31° 265° (W) 22:37:32 145.826/435.025
FUNcube-1 28 Jun 22:37:58 22:41:38 29° 266° (W) 22:45:26 145.935
CUBEBUG 1 28 Jun 22:41:01 22:43:40 16° 59° (ENE) 22:46:20 437.445
UWE-3 28 Jun 22:43:15 22:46:07 18° 270° (W) 22:49:02 435.000/436.395/437.385
AO-85 28 Jun 22:45:04 22:50:29 77° 126° (SE) 22:55:39 145.980
VELOX 1 28 Jun 22:49:24 22:52:25 18° 59° (ENE) 22:55:26 145.980
Cosmos 2499 28 Jun 22:51:13 22:55:52 15° 315° (NW) 23:00:37 435.465 / 435.565
ANTELSAT 28 Jun 22:54:48 22:58:34 24° 92° (E) 23:02:20 437.575/2403.000
PRISM 28 Jun 22:57:35 23:01:15 32° 294° (WNW) 23:04:53 437.425
50 SAT 28 Jun 23:01:33 23:04:18 20° 63° (ENE) 23:07:05 437.505
RS-15 28 Jun 23:02:54 23:13:35 37° 254° (WSW) 23:24:14 29.354- 29.394
STRAND 1 28 Jun 23:07:08 23:08:36 11° 311° (NW) 23:10:03 437.568
YUBILEINY 28 Jun 23:14:05 23:22:01 35° 63° (ENE) 23:29:54 435.215
ESTCUBE 1 28 Jun 23:25:41 23:30:07 55° 71° (ENE) 23:34:34 437.505/2401.250
UKube-1 28 Jun 23:27:56 23:31:32 26° 63° (ENE) 23:35:09 .
AISAT 28 Jun 23:28:54 23:33:01 41° 68° (ENE) 23:37:09 437.250
SPROUT 28 Jun 23:29:31 23:32:33 19° 61° (ENE) 23:35:36 437.525
HUMSAT D 28 Jun 23:31:03 23:34:44 29° 265° (W) 23:38:29 437.325/437.525
TIGRISAT 28 Jun 23:45:48 23:50:25 65° 101° (ESE) 23:55:05 435.000
DX 1 28 Jun 23:47:44 23:51:54 48° 69° (ENE) 23:56:06 434.975-435.025
UNISAT 6 28 Jun 23:51:02 23:55:42 77° 104° (ESE) 00:00:24 437.425
NANOSAT C BR1 29 Jun 00:00:31 00:03:28 18° 91° (E) 00:06:25 145.865
SO-50 29 Jun 00:02:00 00:06:36 46° 41° (NE) 00:11:01 436.795
QB50P1 29 Jun 00:03:32 00:06:43 20° 92° (E) 00:09:55 145.935-145.965
POPSAT HIP 1 29 Jun 00:06:42 00:10:00 21° 92° (E) 00:13:17 437.405
Cosmos 2504 29 Jun 00:10:09 00:17:32 28° 58° (ENE) 00:24:43 435.465 / 435.565
CUBEBUG 1 29 Jun 00:15:07 00:19:28 72° 258° (WSW) 00:23:49 437.445
QB50P2 29 Jun 00:18:48 00:22:34 29° 95° (E) 00:26:19 145.880/145.840
DUCHIFAT 1 29 Jun 00:20:28 00:24:04 26° 94° (E) 00:27:39 145.980
POLYITAN 1 29 Jun 00:21:24 00:25:12 30° 96° (E) 00:29:00 437.675
VELOX 1 29 Jun 00:24:05 00:28:28 63° 258° (WSW) 00:32:52 145.980
AO-85 29 Jun 00:26:51 00:31:28 29° 327° (NNW) 00:35:53 145.980
Cosmos 2491 29 Jun 00:30:02 00:37:48 38° 84° (E) 00:45:33 435.465 / 435.565
ANTELSAT 29 Jun 00:31:02 00:35:30 48° 291° (WNW) 00:40:00 437.575/2403.000
50 SAT 29 Jun 00:34:15 00:37:45 39° 262° (W) 00:41:18 437.505
TISAT 1 29 Jun 00:47:42 00:51:23 31° 66° (ENE) 00:55:05 437.305
UKube-1 29 Jun 01:03:24 01:07:26 39° 262° (W) 01:11:30 .
ESTCUBE 1 29 Jun 01:03:57 01:07:16 20° 269° (W) 01:10:36 437.505/2401.250
SPROUT 29 Jun 01:03:59 01:08:09 54° 259° (W) 01:12:21 437.525
AISAT 29 Jun 01:06:01 01:09:39 25° 266° (W) 01:13:18 437.250
YUBILEINY 29 Jun 01:10:46 01:19:30 67° 267° (W) 01:28:12 435.215
BUGSAT 1 29 Jun 01:14:38 01:18:34 43° 99° (E) 01:22:30 437.445
TIGRISAT 29 Jun 01:23:24 01:26:41 19° 300° (WNW) 01:30:00 435.000
DX 1 29 Jun 01:25:03 01:28:21 21° 267° (W) 01:31:41 434.975-435.025
SWISSCUBE 29 Jun 01:25:39 01:29:21 23° 60° (ENE) 01:33:04 437.505
Oscar 19 29 Jun 01:26:38 01:28:48 13° 86° (E) 01:30:57 437.125/150
UNISAT 6 29 Jun 01:28:55 01:31:53 17° 302° (WNW) 01:34:53 437.425
NANOSAT C BR1 29 Jun 01:35:23 01:39:31 53° 289° (WNW) 01:43:40 145.865
QB50P1 29 Jun 01:38:39 01:42:45 47° 290° (WNW) 01:46:51 145.935-145.965
POPSAT HIP 1 29 Jun 01:41:56 01:46:00 45° 291° (WNW) 01:50:05 437.405
SO-50 29 Jun 01:42:47 01:46:57 33° 242° (WSW) 01:51:01 436.795
JAS-2 29 Jun 01:42:48 01:48:18 44° 97° (E) 01:53:21 435.910
BEESAT 29 Jun 01:50:12 01:54:26 32° 64° (ENE) 01:58:42 436.000
ITUPSAT 1 29 Jun 01:51:30 01:55:45 33° 64° (ENE) 02:00:03 437.325
QB50P2 29 Jun 01:54:34 01:58:23 33° 294° (WNW) 02:02:13 145.880/145.840
DUCHIFAT 1 29 Jun 01:55:57 01:59:50 36° 293° (WNW) 02:03:44 145.980
POLYITAN 1 29 Jun 01:57:12 02:01:01 32° 294° (WNW) 02:04:49 437.675
Cosmos 2504 29 Jun 02:03:10 02:12:09 86° 261° (W) 02:20:47 435.465 / 435.565
O/OREOS (USA 219) 29 Jun 02:09:59 02:10:27 10° 96° (E) 02:10:55 437.305
AO-85 29 Jun 02:10:41 02:13:30 15° 350° (N) 02:16:15 145.980
TISAT 1 29 Jun 02:23:22 02:27:02 30° 264° (W) 02:30:44 437.305
Cosmos 2491 29 Jun 02:25:39 02:34:17 60° 287° (WNW) 02:42:56 435.465 / 435.565
MOZHAYETS 4 29 Jun 02:28:49 02:30:03 11° 53° (NE) 02:31:17
KKS-1 29 Jun 02:34:22 02:36:22 13° 55° (NE) 02:38:23 437.445
BUGSAT 1 29 Jun 02:50:33 02:53:43 22° 297° (WNW) 02:56:54 437.445
PCSat 29 Jun 02:53:46 02:59:01 53° 118° (ESE) 03:04:18 145.827
SWISSCUBE 29 Jun 03:02:04 03:06:47 57° 259° (W) 03:11:33 437.505
Oscar 19 29 Jun 03:03:47 03:08:57 82° 104° (ESE) 03:14:06 437.125/150
STARS 29 Jun 03:05:04 03:07:12 13° 56° (NE) 03:09:19 437.465
YUBILEINY 29 Jun 03:09:50 03:14:31 16° 290° (WNW) 03:19:13 435.215
GONETS M04 29 Jun 03:17:24 03:20:07 12° 40° (NE) 03:22:50
AIST 1 29 Jun 03:18:51 03:21:03 14° 62° (ENE) 03:23:14
Gurwin Techsat 1B 29 Jun 03:24:28 03:29:46 59° 101° (ESE) 03:35:00 435.225
BEESAT 3 29 Jun 03:25:22 03:29:10 50° 123° (ESE) 03:33:01 437.485
BEESAT 29 Jun 03:27:43 03:32:09 37° 263° (W) 03:36:38 436.000
ITAMSAT 1 29 Jun 03:27:46 03:32:05 25° 93° (E) 03:36:22 435.822/435.867
JAS-2 29 Jun 03:28:09 03:33:17 33° 300° (WNW) 03:38:00 435.910
ITUPSAT 1 29 Jun 03:29:05 03:33:32 37° 263° (W) 03:38:02 437.325
O/OREOS (USA 219) 29 Jun 03:44:33 03:49:02 79° 116° (ESE) 03:53:32 437.305
AO-85 29 Jun 03:52:53 03:55:56 16° 15° (NNE) 03:58:50 145.980
CUBESAT XI-V 29 Jun 03:57:35 03:58:58 11° 53° (NE) 04:00:20 437.345
Cosmos 2504 29 Jun 03:57:53 04:04:16 23° 285° (WNW) 04:10:31 435.465 / 435.565
MOZHAYETS 4 29 Jun 04:01:45 04:06:20 65° 72° (ENE) 04:10:58
BEESAT 2 29 Jun 04:04:07 04:08:03 69° 126° (SE) 04:12:02 435.950
KKS-1 29 Jun 04:07:49 04:12:15 84° 74° (ENE) 04:16:42 437.445
Cosmos 2491 29 Jun 04:28:15 04:33:24 16° 312° (NW) 04:38:34 435.465 / 435.565
AO-7 29 Jun 04:31:02 04:38:47 39° 97° (E) 04:46:28 29.400- 29.500
PCSat 29 Jun 04:37:40 04:42:39 36° 319° (NW) 04:47:40 145.827
STARS 29 Jun 04:38:32 04:42:54 90° 76° (ENE) 04:47:18 437.465
Oscar 19 29 Jun 04:44:15 04:47:40 18° 304° (NW) 04:51:06 437.125/150
Cosmos 2499 29 Jun 04:45:06 04:51:56 24° 55° (NE) 04:58:31 435.465 / 435.565
AIST 2 29 Jun 04:52:27 04:55:00 16° 112° (ESE) 04:57:34 435.215
AIST 1 29 Jun 04:54:58 04:59:14 75° 262° (W) 05:03:28
BEESAT 3 29 Jun 05:03:42 05:07:04 27° 323° (NW) 05:10:30 437.485
Gurwin Techsat 1B 29 Jun 05:05:03 05:09:21 26° 301° (WNW) 05:13:39 435.225
ITAMSAT 1 29 Jun 05:06:45 05:11:52 54° 292° (WNW) 05:16:56 435.822/435.867
GONETS M04 29 Jun 05:11:47 05:20:00 43° 67° (ENE) 05:28:12
HORYU 2 29 Jun 05:20:37 05:23:51 19° 91° (E) 05:27:03 437.375
O/OREOS (USA 219) 29 Jun 05:25:54 05:29:01 18° 316° (NW) 05:32:09 437.305
CUBESAT XI-V 29 Jun 05:30:49 05:35:28 66° 73° (ENE) 05:40:09 437.345
STRAND 1 29 Jun 05:32:57 05:33:32 10° 48° (NE) 05:34:08 437.568
AO-85 29 Jun 05:33:13 05:37:43 40° 39° (NE) 05:41:50 145.980
MOZHAYETS 4 29 Jun 05:40:53 05:43:57 17° 271° (W) 05:47:03
BEESAT 2 29 Jun 05:43:06 05:46:18 22° 327° (NNW) 05:49:30 435.950
KKS-1 29 Jun 05:47:35 05:49:26 12° 273° (W) 05:51:19 437.445
CUTE-I 29 Jun 06:13:55 06:15:53 12° 84° (E) 06:17:50 437.470
STARS 29 Jun 06:18:33 06:19:56 11° 273° (W) 06:21:18 437.465
AO-7 29 Jun 06:23:44 06:31:56 60° 298° (WNW) 06:40:05 29.400- 29.500
PCSat 29 Jun 06:24:41 06:27:41 15° 344° (NNW) 06:30:43 145.827
AIST 2 29 Jun 06:28:52 06:32:59 73° 310° (NW) 06:37:09 435.215
Cosmos 2499 29 Jun 06:37:41 06:46:37 83° 80° (E) 06:55:01 435.465 / 435.565
NOAA 15 29 Jun 06:38:22 06:42:42 25° 93° (E) 06:46:59 137.62
BEESAT 3 29 Jun 06:45:15 06:46:04 10° 347° (NNW) 06:46:52 437.485
ITAMSAT 1 29 Jun 06:48:57 06:50:14 11° 312° (NW) 06:51:31 435.822/435.867
HORYU 2 29 Jun 06:56:20 07:00:45 56° 290° (WNW) 07:05:09 437.375
STRAND 1 29 Jun 07:06:37 07:11:36 51° 68° (ENE) 07:16:36 437.568
GONETS M04 29 Jun 07:08:44 07:17:05 54° 270° (W) 07:25:29
CUBESAT XI-V 29 Jun 07:10:11 07:13:19 17° 271° (W) 07:16:27 437.345
AO-85 29 Jun 07:13:57 07:18:08 36° 242° (WSW) 07:22:00 145.980
NOAA 18 29 Jun 07:17:14 07:22:29 42° 98° (E) 07:27:43 137.9125
Cubesat XI-IV 29 Jun 07:17:27 07:22:32 40° 97° (E) 07:27:34 437.490
CUSAT 1 29 Jun 07:20:39 07:27:19 36° 92° (E) 07:32:57 437.405
DOVE 4 29 Jun 07:22:32 07:24:57 14° 89° (E) 07:27:23 437.250
BRITE-PL 29 Jun 07:32:23 07:36:33 72° 101° (ESE) 07:40:43 437.365/2234.400
LilacSat-2 29 Jun 07:46:51 07:50:46 77° 104° (ESE) 07:54:39 437.200
DANDE 29 Jun 07:48:46 07:56:01 34° 88° (E) 08:02:35 436.750
CUTE-I 29 Jun 07:51:28 07:56:53 74° 104° (ESE) 08:02:15 437.470
GOMX 1 29 Jun 08:02:18 08:06:29 68° 101° (ESE) 08:10:48 467.674
AIST 2 29 Jun 08:09:18 08:12:11 18° 333° (NNW) 08:15:05 435.215
PCSat 29 Jun 08:10:56 08:13:30 13° 10° (N) 08:16:04 145.827
CINEMA 3 29 Jun 08:12:51 08:15:37 16° 89° (E) 08:18:26 145.822/145.860
PRISM 29 Jun 08:15:38 08:19:28 37° 67° (ENE) 08:23:18 437.425
AO-7 29 Jun 08:17:36 08:23:07 20° 322° (NW) 08:28:39 29.400- 29.500
NOAA 15 29 Jun 08:17:40 08:22:48 54° 292° (WNW) 08:27:53 137.62
Cosmos 2499 29 Jun 08:31:52 08:38:43 26° 282° (WNW) 08:45:19 435.465 / 435.565
STRAND 1 29 Jun 08:46:47 08:51:03 26° 267° (W) 08:55:20 437.568
ISS 29 Jun 08:52:06 08:53:54 14° 137° (SE) 08:55:42 145.825
COMPASS 1 29 Jun 08:53:31 08:56:15 17° 90° (E) 08:58:57 437.405
CANX-2 29 Jun 08:53:50 08:57:48 34° 96° (E) 09:01:42 2200.000
HO-68 29 Jun 08:56:13 09:02:57 40° 97° (E) 09:09:38 435.675
Cubesat XI-IV 29 Jun 08:57:40 09:02:35 36° 296° (WNW) 09:07:27 437.490
NOAA 18 29 Jun 08:58:04 09:03:05 37° 297° (WNW) 09:08:07 137.9125
DOVE 4 29 Jun 08:58:50 09:03:06 70° 287° (WNW) 09:07:35 437.250
CUSAT 1 29 Jun 09:01:58 09:09:18 54° 287° (WNW) 09:15:18 437.405
BEESAT 2 29 Jun 09:04:02 09:05:13 11° 15° (NNE) 09:06:24 435.950
GONETS M04 29 Jun 09:09:21 09:11:45 11° 293° (WNW) 09:14:10
BRITE-PL 29 Jun 09:12:19 09:14:34 14° 302° (WNW) 09:16:48 437.365/2234.400
CUTE 1.7 + AOD 2 29 Jun 09:13:34 09:17:45 47° 99° (E) 09:21:52 437.475
TIGRISAT 29 Jun 09:14:43 09:16:55 14° 56° (NE) 09:19:09 435.000
SEEDS 29 Jun 09:16:15 09:20:14 37° 97° (E) 09:24:10 437.485
PHONESAT 2.4 29 Jun 09:19:18 09:21:13 15° 178° (S) 09:23:07 2401.200-2431.200
UNISAT 6 29 Jun 09:19:35 09:22:14 16° 58° (ENE) 09:24:55 437.425
LilacSat-2 29 Jun 09:22:47 09:24:32 13° 301° (WNW) 09:26:16 437.200
DANDE 29 Jun 09:30:11 09:38:33 67° 285° (WNW) 09:45:56 436.750
CUTE-I 29 Jun 09:32:25 09:36:24 21° 303° (WNW) 09:40:22 437.470
AUBIESAT-1 29 Jun 09:32:45 09:33:53 11° 95° (E) 09:35:02 437.475
CUBEBUG 2 29 Jun 09:40:40 09:44:55 36° 96° (E) 09:49:15 437.445
GOMX 1 29 Jun 09:41:41 09:44:11 16° 300° (WNW) 09:46:42 467.674
CINEMA 3 29 Jun 09:48:42 09:53:12 71° 287° (WNW) 09:57:53 145.822/145.860
PRISM 29 Jun 09:51:25 09:54:53 25° 265° (W) 09:58:20 437.425
AAUSAT CUBESAT 2 29 Jun 09:53:05 09:57:11 52° 100° (E) 10:01:14 437.432
PCSat 29 Jun 09:54:10 09:58:49 28° 36° (NE) 10:03:26 145.827
ANTELSAT 29 Jun 09:57:48 10:01:41 33° 66° (ENE) 10:05:40 437.575/2403.000
DELFI C3 29 Jun 09:59:48 10:01:31 12° 88° (E) 10:03:13 145.870
NOAA 15 29 Jun 10:00:10 10:01:28 11° 312° (NW) 10:02:47 137.62
BEESAT 3 29 Jun 10:01:23 10:04:38 23° 34° (NE) 10:07:52 437.485
ZACube-1 29 Jun 10:03:41 10:07:42 30° 95° (E) 10:11:42 437.345
M-CUBED/EXP-1 PRIME 29 Jun 10:10:49 10:14:18 31° 103° (ESE) 10:18:00 437.505
Oscar 11 29 Jun 10:12:04 10:16:06 35° 96° (E) 10:20:06 145.826/435.025
JAS-2 29 Jun 10:20:23 10:21:15 10° 42° (NE) 10:22:08 435.910
FUNcube-1 29 Jun 10:20:38 10:24:56 40° 97° (E) 10:29:14 145.935
UWE-3 29 Jun 10:26:13 10:30:48 69° 102° (ESE) 10:35:27 435.000/436.395/437.385
ISS 29 Jun 10:26:36 10:29:50 62° 156° (SSE) 10:33:05 145.825
COMPASS 1 29 Jun 10:28:02 10:32:11 57° 288° (WNW) 10:36:16 437.405
CANX-2 29 Jun 10:29:52 10:33:34 29° 295° (WNW) 10:37:15 2200.000
Cosmos 2491 29 Jun 10:34:01 10:40:54 25° 57° (ENE) 10:47:43 435.465 / 435.565
DOVE 4 29 Jun 10:39:32 10:40:06 10° 305° (NW) 10:40:41 437.250
BEESAT 2 29 Jun 10:40:46 10:44:18 29° 37° (NE) 10:47:50 435.950
HO-68 29 Jun 10:43:56 10:50:51 51° 297° (WNW) 10:57:44 435.675
TIGRISAT 29 Jun 10:48:37 10:52:57 88° 255° (WSW) 10:57:25 435.000
CUSAT 1 29 Jun 10:49:40 10:52:27 13° 305° (NW) 10:55:02 437.405
CUTE 1.7 + AOD 2 29 Jun 10:50:01 10:53:18 22° 297° (WNW) 10:56:35 437.475
SEEDS 29 Jun 10:52:14 10:55:48 26° 295° (WNW) 10:59:19 437.485
UNISAT 6 29 Jun 10:54:05 10:58:24 74° 258° (WSW) 11:02:52 437.425
PHONESAT 2.4 29 Jun 10:55:58 10:57:06 12° 195° (SSW) 10:58:13 2401.200-2431.200
NANOSAT C BR1 29 Jun 10:56:44 11:00:05 24° 63° (ENE) 11:03:28 145.865
QB50P1 29 Jun 11:00:02 11:03:33 27° 64° (ENE) 11:07:06 145.935-145.965
POPSAT HIP 1 29 Jun 11:03:16 11:06:50 28° 65° (ENE) 11:10:27 437.405
AUBIESAT-1 29 Jun 11:04:55 11:08:48 86° 287° (WNW) 11:12:57 437.475
HUMSAT D 29 Jun 11:09:32 11:13:28 33° 96° (E) 11:17:22 437.325/437.525
QB50P2 29 Jun 11:15:25 11:19:19 38° 68° (ENE) 11:23:15 145.880/145.840
DUCHIFAT 1 29 Jun 11:16:22 11:20:08 34° 67° (ENE) 11:23:56 145.980
DANDE 29 Jun 11:17:08 11:22:36 19° 305° (NW) 11:27:36 436.750
CUBEBUG 2 29 Jun 11:17:26 11:21:29 32° 294° (WNW) 11:25:36 437.445
POLYITAN 1 29 Jun 11:18:02 11:21:56 39° 68° (ENE) 11:25:53 437.675
RS-15 29 Jun 11:20:11 11:29:39 32° 103° (ESE) 11:39:30 29.354- 29.394
CINEMA 3 29 Jun 11:28:11 11:29:37 11° 305° (NW) 11:31:03 145.822/145.860
AAUSAT CUBESAT 2 29 Jun 11:29:19 11:32:20 19° 298° (WNW) 11:35:19 437.432
AIST 2 29 Jun 11:30:16 11:32:35 14° 21° (NNE) 11:34:53 435.215
DELFI C3 29 Jun 11:32:52 11:36:53 71° 286° (WNW) 11:40:50 145.870
ANTELSAT 29 Jun 11:34:33 11:38:24 31° 265° (W) 11:42:22 437.575/2403.000
PCSat 29 Jun 11:37:20 11:42:47 77° 237° (WSW) 11:48:11 145.827
BEESAT 3 29 Jun 11:38:44 11:42:39 63° 235° (SW) 11:46:34 437.485
ZACube-1 29 Jun 11:39:52 11:44:01 37° 293° (WNW) 11:48:14 437.345
M-CUBED/EXP-1 PRIME 29 Jun 11:45:29 11:48:49 29° 299° (WNW) 11:52:22 437.505
Oscar 11 29 Jun 11:48:23 11:52:09 29° 295° (WNW) 11:55:54 145.826/435.025
FUNcube-1 29 Jun 11:57:11 12:01:02 28° 295° (WNW) 12:04:55 145.935
JAS-2 29 Jun 11:57:58 12:04:44 40° 63° (ENE) 12:10:53 435.910
50 SAT 29 Jun 12:00:10 12:01:56 13° 89° (E) 12:03:42 437.505
CUBEBUG 1 29 Jun 12:00:26 12:03:01 15° 89° (E) 12:05:35 437.445
ISS 29 Jun 12:03:05 12:06:20 59° 355° (N) 12:09:36 145.825
UWE-3 29 Jun 12:03:42 12:06:49 18° 300° (WNW) 12:09:57 435.000/436.395/437.385
BUGSAT 1 29 Jun 12:08:23 12:12:17 53° 71° (ENE) 12:16:13 437.445
VELOX 1 29 Jun 12:10:36 12:13:37 18° 91° (E) 12:16:36 145.980
O/OREOS (USA 219) 29 Jun 12:11:04 12:15:23 44° 56° (ENE) 12:19:41 437.305
BEESAT 2 29 Jun 12:18:28 12:22:19 46° 238° (WSW) 12:26:08 435.950
YUBILEINY 29 Jun 12:21:39 12:29:02 32° 81° (E) 12:36:27 435.215
TIGRISAT 29 Jun 12:29:16 12:30:23 11° 275° (W) 12:31:30 435.000
Cosmos 2491 29 Jun 12:30:19 12:39:06 88° 81° (E) 12:47:50 435.465 / 435.565
NANOSAT C BR1 29 Jun 12:31:41 12:35:38 40° 262° (W) 12:39:37 145.865
HO-68 29 Jun 12:33:22 12:37:01 15° 320° (NW) 12:40:39 435.675
QB50P1 29 Jun 12:35:21 12:39:13 36° 263° (W) 12:43:08 145.935-145.965
POPSAT HIP 1 29 Jun 12:38:44 12:42:33 34° 263° (W) 12:46:25 437.405
AUBIESAT-1 29 Jun 12:41:10 12:42:48 12° 307° (NW) 12:44:27 437.475
HUMSAT D 29 Jun 12:45:15 12:49:02 30° 294° (WNW) 12:52:48 437.325/437.525
SPROUT 29 Jun 12:46:09 12:49:13 19° 91° (E) 12:52:18 437.525
UKube-1 29 Jun 12:46:09 12:49:43 25° 94° (E) 12:53:15 .
Oscar 19 29 Jun 12:46:43 12:51:09 30° 62° (ENE) 12:55:34 437.125/150
ESTCUBE 1 29 Jun 12:50:21 12:54:52 66° 102° (ESE) 12:59:19 437.505/2401.250
AISAT 29 Jun 12:50:45 12:54:57 44° 99° (E) 12:59:10 437.250
QB50P2 29 Jun 12:51:49 12:55:15 24° 266° (W) 12:58:44 145.880/145.840
DUCHIFAT 1 29 Jun 12:52:19 12:55:53 27° 265° (W) 12:59:29 145.980
POLYITAN 1 29 Jun 12:54:29 12:57:53 24° 267° (W) 13:01:20 437.675
Cosmos 2504 29 Jun 12:57:01 13:02:00 17° 71° (ENE) 13:07:06 435.465 / 435.565
DX 1 29 Jun 13:07:26 13:11:39 48° 100° (E) 13:15:50 434.975-435.025
AIST 2 29 Jun 13:08:02 13:12:04 45° 44° (NE) 13:16:04 435.215
Gurwin Techsat 1B 29 Jun 13:11:35 13:15:49 25° 59° (ENE) 13:20:04 435.225
ITAMSAT 1 29 Jun 13:14:34 13:16:24 12° 49° (NE) 13:18:14 435.822/435.867
PCSat 29 Jun 13:22:40 13:25:17 14° 257° (WSW) 13:27:53 145.827
RS-15 29 Jun 13:29:05 13:40:40 89° 308° (NW) 13:52:56 29.354- 29.394
50 SAT 29 Jun 13:32:21 13:36:01 59° 288° (WNW) 13:39:38 437.505
CUBEBUG 1 29 Jun 13:35:28 13:39:45 65° 288° (WNW) 13:44:02 437.445
ISS 29 Jun 13:39:41 13:42:58 80° 16° (NNE) 13:46:15 145.825
JAS-2 29 Jun 13:42:18 13:49:39 53° 261° (W) 13:56:18 435.910
AO-7 29 Jun 13:44:59 13:51:12 24° 43° (NE) 13:57:26 29.400- 29.500
BUGSAT 1 29 Jun 13:45:26 13:48:00 16° 269° (W) 13:50:35 437.445
VELOX 1 29 Jun 13:46:07 13:50:27 58° 289° (WNW) 13:54:46 145.980
O/OREOS (USA 219) 29 Jun 13:50:54 13:54:34 25° 256° (WSW) 13:58:13 437.305
TISAT 1 29 Jun 14:02:24 14:06:09 30° 96° (E) 14:09:50 437.305
YUBILEINY 29 Jun 14:16:31 14:25:12 68° 284° (WNW) 14:33:59 435.215
SPROUT 29 Jun 14:21:19 14:25:29 52° 289° (WNW) 14:29:39 437.525
UKube-1 29 Jun 14:21:52 14:25:54 40° 292° (WNW) 14:29:56 .
Oscar 19 29 Jun 14:25:22 14:30:18 46° 261° (W) 14:35:15 437.125/150
AISAT 29 Jun 14:27:41 14:31:14 24° 297° (WNW) 14:34:47 437.250
ESTCUBE 1 29 Jun 14:28:08 14:31:13 18° 301° (WNW) 14:34:17 437.505/2401.250
Cosmos 2491 29 Jun 14:28:25 14:34:47 24° 284° (WNW) 14:41:11 435.465 / 435.565
DX 1 29 Jun 14:44:13 14:47:35 22° 298° (WNW) 14:50:57 434.975-435.025
Cosmos 2504 29 Jun 14:45:30 14:53:41 72° 94° (E) 15:02:26 435.465 / 435.565
AIST 2 29 Jun 14:46:51 14:50:22 27° 243° (WSW) 14:53:54 435.215
ITAMSAT 1 29 Jun 14:49:43 14:54:50 59° 69° (ENE) 14:59:59 435.822/435.867
Gurwin Techsat 1B 29 Jun 14:50:08 14:55:24 61° 258° (WSW) 15:00:42 435.225
SWISSCUBE 29 Jun 14:58:05 15:02:09 26° 94° (E) 15:06:10 437.505
ISS 29 Jun 15:16:20 15:19:13 29° 214° (SW) 15:22:06 145.825
BEESAT 29 Jun 15:22:59 15:27:30 40° 98° (E) 15:32:00 436.000
ITUPSAT 1 29 Jun 15:24:43 15:29:17 40° 98° (E) 15:33:48 437.325
AO-7 29 Jun 15:34:27 15:42:45 75° 66° (ENE) 15:51:07 29.400- 29.500
JAS-2 29 Jun 15:35:00 15:36:01 10° 280° (W) 15:37:01 435.910
TISAT 1 29 Jun 15:38:03 15:41:48 32° 294° (WNW) 15:45:32 437.305
RS-15 29 Jun 15:43:36 15:54:50 45° 339° (NNW) 16:06:31 29.354- 29.394
MOZHAYETS 4 29 Jun 15:54:33 15:56:06 11° 85° (E) 15:57:40
KKS-1 29 Jun 15:56:20 15:58:01 12° 87° (E) 15:59:40 437.445
SO-50 29 Jun 16:00:30 16:04:44 30° 117° (ESE) 16:08:57 436.795
YUBILEINY 29 Jun 16:18:10 16:23:59 19° 310° (NW) 16:29:53 435.215
HORYU 2 29 Jun 16:22:30 16:26:22 30° 64° (ENE) 16:30:16 437.375
STARS 29 Jun 16:25:24 16:27:09 12° 87° (E) 16:28:54 437.465
NOAA 15 29 Jun 16:26:46 16:28:52 12° 50° (NE) 16:30:57 137.62
ITAMSAT 1 29 Jun 16:30:35 16:34:41 23° 268° (W) 16:38:49 435.822/435.867
SWISSCUBE 29 Jun 16:35:34 16:40:09 45° 292° (WNW) 16:44:41 437.505
Cosmos 2504 29 Jun 16:40:35 16:47:55 33° 298° (WNW) 16:55:40 435.465 / 435.565
BEESAT 29 Jun 17:01:00 17:05:11 31° 297° (WNW) 17:09:21 436.000
ITUPSAT 1 29 Jun 17:02:48 17:07:00 30° 297° (WNW) 17:11:10 437.325
Cubesat XI-IV 29 Jun 17:06:09 17:09:45 19° 55° (NE) 17:13:22 437.490
NOAA 18 29 Jun 17:09:16 17:13:23 22° 56° (NE) 17:17:34 137.9125
BRITE-PL 29 Jun 17:10:25 17:13:51 20° 62° (ENE) 17:17:08 437.365/2234.400
CUBESAT XI-V 29 Jun 17:24:58 17:26:45 12° 86° (E) 17:28:33 437.345
